Boulder City, NV

12:58 PM PDT on September 24, 2017 (GMT -0700)
Boulder City

Weather History for KBVU - December, 2012

Change the Weather History Date:

Saturday, December 22, 2012

  Actual Average (KLAS) Record (KLAS)
Temperature  
Mean Temperature 40 °F -  
Max Temperature 53 °F 54 °F 75 °F (2014)
Min Temperature 28 °F 32 °F 12 °F (1990)
Degree Days  
Heating Degree Days 24    
Moisture  
Dew Point 25 °F    
Average Humidity 56    
Maximum Humidity 87    
Minimum Humidity 33    
Precipitation  
Precipitation 0.00 in - - ()
Sea Level Pressure  
Sea Level Pressure 30.08 in    
Wind  
Wind Speed 1 mph (ESE)    
Max Wind Speed 10 mph    
Max Gust Speed 16 mph    
Visibility 10 miles    
Events      
Averages and records for this station are not official NWS values.
T = Trace of Precipitation, MM = Missing Value Source: NWS Daily Summary

Daily Weather History Graph

Daily Weather History Graph

Search for Another Location

Airport or City:

Trip Planner

Search our weather history database for the weather conditions in past years. The results will help you decide how hot, cold, wet, or windy it might be!

Date:

Astronomy

Dec. 22, 2012 Rise Set
Actual Time 6:46 AM PST 4:29 PM PST
Civil Twilight 6:18 AM PST 4:58 PM PST
Nautical Twilight 5:46 AM PST 5:30 PM PST
Astronomical Twilight 5:14 AM PST 6:01 PM PST
Moon 12:44 PM PST (12/22) 1:41 AM PST (12/22)
Length of Visible Light 10h 40m
Length of Day
9h 43m
Waxing Gibbous, 74% of the Moon is Illuminated
Dec 22
Waxing Gibbous
Dec 28
Full
Jan 4
Last Quarter
Jan 11
New
Jan 18
First Quarter

Hourly Weather History & Observations

Time (PST) Temp. Windchill Dew Point Humidity Pressure Visibility Wind Dir Wind Speed Gust Speed Precip Events Conditions
12:15 AM 32.0 °F - 24.8 °F 75% 30.13 in 10.0 mi Calm Calm - N/A   Clear
12:35 AM 32.0 °F - 24.8 °F 75% 30.13 in 10.0 mi Calm Calm - N/A   Clear
12:55 AM 32.0 °F - 24.8 °F 75% 30.13 in 10.0 mi Calm Calm - N/A   Clear
1:15 AM 32.0 °F - 24.8 °F 75% 30.13 in 10.0 mi Calm Calm - N/A   Clear
1:35 AM 32.0 °F - 24.8 °F 75% 30.13 in 10.0 mi Calm Calm - N/A   Clear
1:55 AM 32.0 °F - 24.8 °F 75% 30.13 in 10.0 mi Calm Calm - N/A   Clear
2:15 AM 30.2 °F - 23.0 °F 75% 30.13 in 10.0 mi Calm Calm - N/A   Clear
2:35 AM 30.2 °F - 23.0 °F 75% 30.12 in 10.0 mi Calm Calm - N/A   Clear
2:55 AM 30.2 °F - 23.0 °F 75% 30.12 in 10.0 mi Calm Calm - N/A   Clear
3:15 AM 32.0 °F - 23.0 °F 69% 30.12 in 10.0 mi Calm Calm - N/A   Clear
3:55 AM 32.0 °F - 23.0 °F 69% 30.12 in 10.0 mi Calm Calm - N/A   Clear
4:15 AM 32.0 °F - 23.0 °F 69% 30.11 in 10.0 mi Calm Calm - N/A   Clear
4:35 AM 28.4 °F - 23.0 °F 80% 30.11 in 10.0 mi Calm Calm - N/A   Clear
4:55 AM 30.2 °F - 23.0 °F 75% 30.11 in 10.0 mi Calm Calm - N/A   Clear
5:15 AM 32.0 °F - 24.8 °F 75% 30.12 in 10.0 mi Calm Calm - N/A   Clear
5:35 AM 30.2 °F - 24.8 °F 80% 30.12 in 10.0 mi Calm Calm - N/A   Clear
5:55 AM 30.2 °F - 24.8 °F 80% 30.12 in 10.0 mi Calm Calm - N/A   Clear
6:15 AM 32.0 °F - 23.0 °F 69% 30.13 in 10.0 mi Calm Calm - N/A   Clear
6:35 AM 30.2 °F - 24.8 °F 80% 30.13 in 10.0 mi Calm Calm - N/A   Clear
6:55 AM 32.0 °F - 24.8 °F 75% 30.13 in 10.0 mi Calm Calm - N/A   Clear
7:15 AM 30.2 °F - 24.8 °F 80% 30.13 in 10.0 mi Calm Calm - N/A   Clear
7:35 AM 32.0 °F - 26.6 °F 80% 30.13 in 10.0 mi Calm Calm - N/A   Clear
7:55 AM 32.0 °F - 24.8 °F 75% 30.12 in 10.0 mi Calm Calm - N/A   Clear
8:15 AM 33.8 °F - 26.6 °F 75% 30.13 in 10.0 mi Calm Calm - N/A   Clear
8:35 AM 32.0 °F - 28.4 °F 87% 30.13 in 10.0 mi Calm Calm - N/A   Clear
8:55 AM 33.8 °F - 28.4 °F 81% 30.13 in 10.0 mi Calm Calm - N/A   Clear
9:15 AM 37.4 °F - 26.6 °F 65% 30.13 in 10.0 mi Calm Calm - N/A   Clear
9:35 AM 39.2 °F - 26.6 °F 61% 30.13 in 10.0 mi Calm Calm - N/A   Clear
9:55 AM 37.4 °F 34.9 °F 28.4 °F 70% 30.13 in 10.0 mi SE 3.5 mph - N/A   Clear
10:15 AM 39.2 °F 35.9 °F 28.4 °F 65% 30.13 in 10.0 mi SW 4.6 mph - N/A   Clear
10:35 AM 41.0 °F - 28.4 °F 61% 30.13 in 10.0 mi Calm Calm - N/A   Clear
10:55 AM 41.0 °F - 26.6 °F 57% 30.12 in 10.0 mi Calm Calm - N/A   Clear
11:15 AM 42.8 °F - 26.6 °F 53% 30.11 in 10.0 mi Calm Calm - N/A   Clear
11:55 AM 46.4 °F 45.2 °F 26.6 °F 46% 30.08 in 10.0 mi SSE 3.5 mph - N/A   Clear
12:15 PM 46.4 °F - 26.6 °F 46% 30.07 in 10.0 mi Calm Calm - N/A   Clear
12:35 PM 48.2 °F - 26.6 °F 43% 30.07 in 10.0 mi Calm Calm - N/A   Clear
12:55 PM 48.2 °F - 28.4 °F 46% 30.06 in 10.0 mi Calm Calm - N/A   Clear
1:15 PM 48.2 °F - 26.6 °F 43% 30.05 in 10.0 mi SSE 3.5 mph - N/A   Clear
1:35 PM 50.0 °F - 23.0 °F 35% 30.05 in 10.0 mi Calm Calm - N/A   Clear
1:55 PM 50.0 °F - 24.8 °F 37% 30.05 in 10.0 mi Calm Calm - N/A   Clear
2:15 PM 50.0 °F - 23.0 °F 35% 30.04 in 10.0 mi Calm Calm - N/A   Clear
2:35 PM 50.0 °F - 23.0 °F 35% 30.03 in 10.0 mi Calm Calm - N/A   Clear
2:55 PM 53.6 °F - 24.8 °F 33% 30.03 in 10.0 mi Calm Calm - N/A   Clear
3:15 PM 53.6 °F - 24.8 °F 33% 30.03 in 10.0 mi Calm Calm - N/A   Clear
3:35 PM 53.6 °F - 24.8 °F 33% 30.02 in 10.0 mi East 5.8 mph - N/A   Clear
3:55 PM 53.6 °F - 24.8 °F 33% 30.02 in 10.0 mi Calm Calm - N/A   Clear
4:15 PM 50.0 °F - 26.6 °F 40% 30.03 in 10.0 mi ENE 4.6 mph - N/A   Clear
4:35 PM 50.0 °F - 24.8 °F 37% 30.03 in 10.0 mi SE 9.2 mph - N/A   Clear
4:55 PM 50.0 °F - 24.8 °F 37% 30.03 in 10.0 mi ESE 8.1 mph - N/A   Clear
5:15 PM 50.0 °F - 23.0 °F 35% 30.04 in 10.0 mi ESE 10.4 mph 16.1 mph N/A   Clear
5:35 PM 50.0 °F - 23.0 °F 35% 30.04 in 10.0 mi ESE 6.9 mph - N/A   Clear
5:55 PM 50.0 °F - 23.0 °F 35% 30.04 in 10.0 mi East 9.2 mph - N/A   Clear
6:15 PM 48.2 °F - 24.8 °F 40% 30.04 in 10.0 mi SSE 6.9 mph - N/A   Clear
6:35 PM 48.2 °F - 23.0 °F 37% 30.05 in 10.0 mi ENE 4.6 mph - N/A   Clear
6:55 PM 48.2 °F - 23.0 °F 37% 30.05 in 10.0 mi East 6.9 mph - N/A   Clear
7:15 PM 48.2 °F - 23.0 °F 37% 30.05 in 10.0 mi ENE 4.6 mph - N/A   Clear
7:35 PM 48.2 °F - 24.8 °F 40% 30.06 in 10.0 mi Calm Calm - N/A   Clear
7:55 PM 44.6 °F - 26.6 °F 49% 30.05 in 10.0 mi Calm Calm - N/A   Unknown
8:15 PM 41.0 °F - 26.6 °F 57% 30.05 in 10.0 mi Calm Calm - N/A   Unknown
8:35 PM 44.6 °F - 26.6 °F 49% 30.05 in 10.0 mi Calm Calm - N/A   Unknown
8:55 PM 48.2 °F - 24.8 °F 40% 30.06 in 10.0 mi SE 4.6 mph - N/A   Unknown
9:15 PM 48.2 °F - 24.8 °F 40% 30.06 in 10.0 mi SE 9.2 mph - N/A   Unknown
9:35 PM 48.2 °F - 26.6 °F 43% 30.06 in 10.0 mi SE 6.9 mph - N/A   Unknown
9:55 PM 48.2 °F - 26.6 °F 43% 30.06 in 10.0 mi SSE 8.1 mph - N/A   Unknown
10:15 PM 48.2 °F - 24.8 °F 40% 30.06 in 10.0 mi SSE 8.1 mph - N/A   Unknown
10:35 PM 48.2 °F - 24.8 °F 40% 30.06 in 10.0 mi East 4.6 mph - N/A   Unknown
10:55 PM 48.2 °F - 24.8 °F 40% 30.07 in 10.0 mi Calm Calm - N/A   Unknown
11:15 PM 48.2 °F - 24.8 °F 40% 30.06 in 10.0 mi ESE 9.2 mph - N/A   Unknown
11:35 PM 46.4 °F 42.9 °F 26.6 °F 46% 30.06 in 10.0 mi ESE 6.9 mph - N/A   Unknown
11:55 PM 44.6 °F - 26.6 °F 49% 30.06 in 10.0 mi Calm Calm - N/A   Unknown